Regional Weather Roundup
Issued by NWS

Home | Current Version | Previous Version | Text Only | Print | Product List | Glossary Off
Versions: 1 2 3 4 5 6 7 8 9 10 11 12 13 14 15 16 17 18 19 20 21 22 23 24 25 26 27 28 29 30 31 32 33 34 35 36 37 38 39 40 41 42 43 44 45 46 47 48 49

000
ASUS45 KSLC 300910
RWRUT

UTAH REGIONAL WEATHER ROUNDUP
NATIONAL WEATHER SERVICE SALT LAKE CITY UT
300 AM MDT TUE JUN 30 2015

UTZ001>011-023>025-301000-

NORTHERN UTAH

CITY           SKY/WX    TMP DP  RH WIND       PRES   REMARKS
BRIGHAM CITY   PTCLDY    83  45  26 NW5       30.04F
HILL AFB       MOCLDY    76  51  40 E12       30.08S
LOGAN          CLEAR     73  56  54 S5        30.09S
OGDEN          PTCLDY    76  52  43 S6        30.05S
PROVO AIRPORT  MOCLDY    72  50  46 E8        30.08S
SALT LAKE CITY MOCLDY    82  54  37 N3        30.04R
VERNAL         MOCLDY    72  43  35 W6        30.13S
WENDOVER       MOCLDY    88  43  20 NW15G23   30.05S
HEBER CITY     MOCLDY    61  50  67 CALM      30.18S
WEST JORDAN    CLEAR     79  50  36 S8        30.08R

$$

UTZ012>022-026-027-301000-

SOUTHERN/CENTRAL UTAH

CITY           SKY/WX    TMP DP  RH WIND       PRES   REMARKS
BLANDING       CLEAR     71  42  35 NE5       30.25S
BRYCE CANYON   PTCLDY    58  43  57 W6        30.37F
CEDAR CITY     PTCLDY    75  44  33 E10       30.20F
DELTA          MOCLDY    77  39  25 S10       30.10S
HANKSVILLE     PTCLDY    72  37  28 NE3       30.04S
MILFORD        PTCLDY    73  47  39 S12       30.13S
MOAB/CYNLANDS  CLEAR     76  40  27 W5        30.02S
PRICE          MOCLDY    71  38  29 E6        30.17S
ST GEORGE      PTSUNNY   88  48  25 SE7       29.99R
KANAB          MOCLDY    66  54  63 CALM      30.20F

$$

REGIONAL REPORTS     COLORADO/ARIZONA

CITY           SKY/WX    TMP DP  RH WIND       PRES   REMARKS
CRAIG, CO      PTCLDY    53  46  77 CALM      30.24S
GRAND JUNCTION PTCLDY    72  42  34 E3        30.08S
RIFLE          PTCLDY    65  45  48 SE6       30.18R
MONTROSE       PTCLDY    67  46  47 SE6       30.20S
CORTEZ         CLEAR     59  48  67 SW3       30.21S
PAGE, AZ       PTCLDY    84  49  29 SW7       30.05F
GRAND CANYON   MOCLDY    55  50  83 CALM      30.30S
KINGMAN        CLOUDY    79  55  43 SW13      30.03F
FLAGSTAFF      CLOUDY    67  47  48 VRB5      30.31F

$$

REGIONAL REPORTS    NEVADA/IDAHO/WYOMING

CITY           SKY/WX    TMP DP  RH WIND       PRES   REMARKS
LAS VEGAS, NV  MOCLDY    97  49  19 S17G25    29.86R HX  94
ELY            MOCLDY    74  44  34 SW12      30.26R
ELKO           CLOUDY    72  51  47 CALM      30.15F
POCATELLO, ID  CLEAR     70  60  70 E6        30.10F
BURLEY         MOCLDY    72  57  59 SE5       30.05F
EVANSTON, WY   CLOUDY    68  43  40 W3        30.30R
ROCK SPRINGS   CLOUDY    68  39  34 E5        30.25F
KEMMERER       CLOUDY    63  43  48 N13G20    30.30F

$$


USA.gov is the U.S. government's official web portal to all federal, state and local government web resources and services.